Lexington Weather

Lexington, Massachusetts, USA

68°F
7/3/2020 12:43pm 
  • Lexington Conditions: Overcast
  • Temperature: 67.8°F / 19.9°CColder 0.9°F than last hour.
  • Dew Point: 63.9°FDecreased 0.9°Fsince last hour.
  • Relative Humidity: 87
  • Wind: Wind from NNE NNE 1 mph, 10-min avg: 1 mph, gust: 4 mph
  • Barometer: 29.86 in Steady
  • Visibility: 10 miles
  • Rain Today: 0.00 in
  •   

Regional Weather Roundup
for Boston / Norton, MA

        
000
ASUS41 KBOX 281504
RWRBOX

REGIONAL WEATHER ROUNDUP
NATIONAL WEATHER SERVICE BOSTON/NORTON MA
1100 AM EDT SUN JUN 28 2020

NOTE:  "FAIR" INDICATES FEW OR NO CLOUDS BELOW 12,000 FEET WITH NO 
SIGNIFICANT WEATHER AND/OR OBSTRUCTIONS TO VISIBILITY.

MAZALL-281600-
EASTERN MASSACHUSETTS
  
CITY           SKY/WX    TMP DP  RH WIND       PRES   REMARKS
BOSTON         MOSUNNY   79  65  62 SE7       29.74F                  
BEVERLY        MOSUNNY   81  64  56 W8        29.73F                  
LAWRENCE       MOSUNNY   81  66  60 W6        29.76F                  
BEDFORD        MOSUNNY   83  66  56 SW8       29.73F                  
BLUE HILL        N/A     78  67  68 SW6       29.76F                  
NORWOOD        SUNNY     82  67  60 SW6       29.74F                  
MARSHFIELD     MOSUNNY   81  70  69 SE6       29.75F                  
PLYMOUTH       MOSUNNY   79  68  69 VRB7      29.76F                  
TAUNTON        SUNNY     81  67  62 S6        29.75F                  
NEW BEDFORD    MOSUNNY   81  69  67 SW8       29.76F                  
$$

MAZALL-281600-
CAPE COD AND THE ISLANDS
  
CITY           SKY/WX    TMP DP  RH WIND       PRES   REMARKS
FALMOUTH       SUNNY     77  66  69 SW9       29.78S                  
HYANNIS        SUNNY     77  67  71 S9        29.76S                  
CHATHAM        SUNNY     76  68  76 S8        29.79S                  
PROVINCETOWN   CLOUDY    76  68  76 S7        29.78S                  
NANTUCKET      SUNNY     70  65  84 S7        29.79S                  
MARTHAS VNYRD  SUNNY     76  67  73 SW6       29.78S                  
$$
 
MAZALL-281600-
CENTRAL AND WESTERN MASSACHUSETTS
  
CITY           SKY/WX    TMP DP  RH WIND       PRES   REMARKS
WORCESTER      MOSUNNY   78  65  63 SW8       29.79R                  
FITCHBURG      PTSUNNY   82  64  54 NW5       29.75F                  
ORANGE         PTSUNNY   76  64  66 NW7       29.78R                  
SPRINGFIELD    MOSUNNY   79  66  65 CALM      29.75S                  
WESTFIELD      MOSUNNY   77  69  76 VRB3      29.76S                  
NORTH ADAMS    PTSUNNY   72  66  81 SE8       29.77S                  
PITTSFIELD     PTSUNNY   75  68  78 VRB3      29.78S                  
$$
 
RIZALL-281600-
RHODE ISLAND
  
CITY           SKY/WX    TMP DP  RH WIND       PRES   REMARKS
PROVIDENCE     MOSUNNY   79  71  76 SE8       29.77S                  
NEWPORT        PTSUNNY   77  66  68 S6        29.77F                  
BLOCK ISLAND   MOSUNNY   74  66  76 S12       29.78F                  
SMITHFIELD     PTSUNNY   79  71  76 S5        29.78S                  
WESTERLY       PTSUNNY   77  64  64 S5        29.78S                  
$$
 
CTZALL-281600-
CONNECTICUT
  
CITY           SKY/WX    TMP DP  RH WIND       PRES   REMARKS
BRADLEY INTL   PTSUNNY   80  68  66 VRB3      29.75F                  
HARTFORD       MOSUNNY   80  69  69 SE7       29.75S                  
BRIDGEPORT     CLOUDY    72  68  87 E8        29.76S                  
DANBURY        MOSUNNY   80  67  64 W7        29.77F                  
GROTON         PTSUNNY   75  66  73 SE5       29.76S                  
NEW HAVEN      SUNNY     78  71  79 E5        29.76S                  
CHESTER        NOT AVBL                                               
MERIDEN        MOSUNNY   80  68  66 SE6       29.75F                  
WILLIMANTIC    PTSUNNY   79  70  74 VRB3      29.76F                  
OXFORD         MOSUNNY   78  68  71 NW6       29.79S                  
$$

MEZ002-015-021-024-NHZ003-005-008-011-012-014-VTZ005-008-281600-
NORTHERN NEW ENGLAND
  
CITY           SKY/WX    TMP DP  RH WIND       PRES   REMARKS
PORTLAND ME    PTSUNNY   74  62  66 E10       29.75R                  
BANGOR ME      PTSUNNY   75  62  64 VRB3      29.76S                  
CONCORD NH     PTSUNNY   81  63  54 W9        29.75S                  
MANCHESTER NH  PTSUNNY   81  64  56 CALM      29.73F                  
NASHUA NH      PTSUNNY   80  67  64 SW5       29.75F                  
PORTSMOUTH NH  PTSUNNY   79  62  55 SW3       29.73                   
JAFFREY NH     PTSUNNY   73  63  70 W6        29.79S                  
KEENE NH       PTSUNNY   73  65  75 SE3       29.77S                  
BURLINGTON VT  CLOUDY    76  65  68 W8        29.73S                  
MT. WASHINGTON NOT AVBL                                               
$$

NYZ052-076-281600-
EASTERN NEW YORK
  
CITY           SKY/WX    TMP DP  RH WIND       PRES   REMARKS
ALBANY         TSTM      69  65  86 S5        29.76S FOG              
NEW YORK CITY  PTSUNNY   86  66  51 N3        29.74S                  
$$
 
ANZALL-281600-
MARINE OBSERVATIONS
  
STATION/POSITION TIME  TEMP    WIND        PRES    VSBY  WAVE
                       AIR SEA DIR/SP/G                  HT/PER
                 (UTC) (F)     (DEG/KT/KT) (MB)    (MI)  (FT/S)
BOSTON BUOY      1450   68 69  120/  6/  8 1006.6S         1/ 7
BUZZARDS BAY     1400          190/  6/  7 1009.6R
NANTUCKET SOUND  1450   68 70  190/  6/  8 1008.0R         1
MASS BAY-STELLWA NOT AVBL
ISLE OF SHOALS   1400   69     200/  8/  8 1007.0R
S OF BLOCK IS    1426      70                N/A           4/ 7
$$

......................KEY.........................
  SKY/WX - SKY CONDITION/PRESENT WEATHER
  TMP    - TEMPERATURE IN FAHRENHEIT
  DWPT   - DEWPOINT IN FAHRENHEIT
  RH     - RELATIVE HUMIDITY IN PERCENT
  WIND   - DIRECTION AND SPEED IN MPH
  PRES   - MEAN SEA LEVEL PRESSURE IN INCHES OF HG
  WCI    - WIND CHILL INDEX
  VSB    - VISIBILITY IN MILES
  HX     - HEAT INDEX
  TC     - TEMPERATURE IN CELSIUS
  VRB    - VARIABLE WIND DIRECTION
  N/A    - NOT AVAILABLE
  
      

Other recent Regional Weather Roundups

Fri Jul 3, 12:04pm

Fri Jul 3, 11:04am

Fri Jul 3, 10:04am

Fri Jul 3, 9:04am

Fri Jul 3, 8:04am

Fri Jul 3, 7:04am

Fri Jul 3, 6:04am

Fri Jul 3, 5:04am

Fri Jul 3, 4:04am

Fri Jul 3, 3:04am

Fri Jul 3, 2:04am

Fri Jul 3, 1:04am

Fri Jul 3, 12:04am

Thu Jul 2, 11:05pm

Thu Jul 2, 10:04pm

Thu Jul 2, 9:04pm

Thu Jul 2, 8:04pm

Thu Jul 2, 7:05pm

Thu Jul 2, 6:04pm

Thu Jul 2, 5:05pm

Thu Jul 2, 4:04pm

Thu Jul 2, 3:04pm

Thu Jul 2, 2:04pm

Thu Jul 2, 1:05pm

Thu Jul 2, 12:04pm

Thu Jul 2, 11:04am

Thu Jul 2, 10:05am

Thu Jul 2, 9:05am

Thu Jul 2, 8:04am

Thu Jul 2, 7:04am

Thu Jul 2, 6:05am

Thu Jul 2, 5:04am

Thu Jul 2, 4:04am

Thu Jul 2, 3:04am

Thu Jul 2, 2:04am

Thu Jul 2, 1:04am

Thu Jul 2, 12:05am

Wed Jul 1, 11:05pm

Wed Jul 1, 10:04pm

Wed Jul 1, 9:04pm

Wed Jul 1, 8:04pm

Wed Jul 1, 7:04pm

Wed Jul 1, 6:04pm

Wed Jul 1, 5:05pm

Wed Jul 1, 4:04pm

Wed Jul 1, 3:04pm

Wed Jul 1, 2:04pm

Wed Jul 1, 1:04pm

Wed Jul 1, 12:04pm

Wed Jul 1, 11:04am

Wed Jul 1, 10:04am

Wed Jul 1, 9:04am

Wed Jul 1, 8:05am

Wed Jul 1, 7:04am

Wed Jul 1, 6:04am

Wed Jul 1, 5:04am

Wed Jul 1, 4:04am

Wed Jul 1, 3:04am

Wed Jul 1, 2:04am

Wed Jul 1, 1:04am

Wed Jul 1, 12:04am

Tue Jun 30, 11:04pm

Tue Jun 30, 10:05pm

Tue Jun 30, 9:04pm

Tue Jun 30, 8:05pm

Tue Jun 30, 7:05pm

Tue Jun 30, 6:04pm

Tue Jun 30, 5:04pm

Tue Jun 30, 4:04pm

Tue Jun 30, 3:04pm

Tue Jun 30, 2:04pm

Tue Jun 30, 1:04pm

Tue Jun 30, 12:04pm

Tue Jun 30, 11:04am

Tue Jun 30, 10:04am

Tue Jun 30, 9:04am

Tue Jun 30, 8:04am

Tue Jun 30, 7:04am

Tue Jun 30, 6:04am

Tue Jun 30, 5:04am

Tue Jun 30, 4:04am

Tue Jun 30, 3:04am

Tue Jun 30, 2:04am

Tue Jun 30, 1:04am

Tue Jun 30, 12:04am

Mon Jun 29, 11:04pm

Mon Jun 29, 10:05pm

Mon Jun 29, 9:04pm

Mon Jun 29, 8:05pm

Mon Jun 29, 7:04pm

Mon Jun 29, 6:04pm

Mon Jun 29, 5:04pm

Mon Jun 29, 4:05pm

Mon Jun 29, 3:04pm

Mon Jun 29, 2:04pm

Mon Jun 29, 1:04pm

Mon Jun 29, 12:04pm

Mon Jun 29, 11:04am

Mon Jun 29, 10:04am

Mon Jun 29, 9:04am

Mon Jun 29, 8:04am

Mon Jun 29, 7:04am

Mon Jun 29, 6:04am

Mon Jun 29, 5:04am

Mon Jun 29, 4:04am

Mon Jun 29, 3:04am

Mon Jun 29, 2:04am

Mon Jun 29, 1:04am

Mon Jun 29, 12:04am

Sun Jun 28, 11:05pm

Sun Jun 28, 10:04pm

Sun Jun 28, 9:05pm

Sun Jun 28, 8:04pm

Sun Jun 28, 7:04pm

Sun Jun 28, 6:04pm

Sun Jun 28, 5:04pm

Sun Jun 28, 4:04pm

Sun Jun 28, 3:04pm

Sun Jun 28, 2:05pm

Sun Jun 28, 1:04pm

Sun Jun 28, 12:04pm

Sun Jun 28, 10:04am

Sun Jun 28, 9:04am

Sun Jun 28, 8:04am

Sun Jun 28, 7:04am

Sun Jun 28, 6:04am

Sun Jun 28, 5:04am

Sun Jun 28, 4:04am

Sun Jun 28, 3:04am

Sun Jun 28, 2:05am

Sun Jun 28, 1:04am

Sun Jun 28, 12:05am

Sat Jun 27, 11:04pm

Sat Jun 27, 10:04pm

Sat Jun 27, 9:04pm

Sat Jun 27, 8:04pm

Sat Jun 27, 7:04pm

Sat Jun 27, 6:04pm

Sat Jun 27, 5:04pm

Sat Jun 27, 4:05pm

Sat Jun 27, 3:04pm

Sat Jun 27, 2:04pm

Sat Jun 27, 1:05pm

Sat Jun 27, 12:04pm

Sat Jun 27, 11:04am

Sat Jun 27, 10:04am

Sat Jun 27, 9:04am

Sat Jun 27, 8:04am

Sat Jun 27, 7:04am

Sat Jun 27, 6:04am

Sat Jun 27, 5:05am

Sat Jun 27, 4:04am

Sat Jun 27, 3:04am

Sat Jun 27, 2:04am

Sat Jun 27, 1:04am

Sat Jun 27, 12:04am

Fri Jun 26, 11:04pm

Fri Jun 26, 10:04pm

Fri Jun 26, 9:05pm

Fri Jun 26, 8:04pm

Fri Jun 26, 7:05pm

Fri Jun 26, 6:04pm

Fri Jun 26, 5:04pm

Fri Jun 26, 4:04pm

Fri Jun 26, 3:04pm

Fri Jun 26, 2:05pm

Fri Jun 26, 1:04pm

Meta data:

ID: 05a520a0-1bc8-4ce4-b186-90af45a9b7c2
Link: https://api.weather.gov/products/05a520a0-1bc8-4ce4-b186-90af45a9b7c2